This is the latest recevied weather packets stored in our database for station/object VK4TOM-13. If no packets are shown the sender has not sent any weather packets the latest 10 day(s).
| Time | Temp. | Humidity | Pressure | Rain* | Wind** | Luminosity | Snow |
|---|---|---|---|---|---|---|---|
| 1778107905 | 24.44° C | 70% | 1017 hPa | 0 mm | - | - | - |
| 1778107304 | 24.44° C | 70% | 1017.2 hPa | 0 mm | - | - | - |
| 1778106703 | 23.89° C | 70% | 1017.1 hPa | 0 mm | - | - | - |
| 1778106101 | 23.89° C | 70% | 1017 hPa | 0 mm | - | - | - |
| 1778105500 | 23.33° C | 70% | 1017.1 hPa | 0 mm | - | - | - |
| 1778104899 | 22.78° C | 70% | 1016.8 hPa | 0 mm | - | - | - |
| 1778104298 | 22.22° C | 70% | 1016.9 hPa | 0 mm | - | - | - |
| 1778103697 | 21.67° C | 70% | 1016.9 hPa | 0 mm | - | - | - |
| 1778103096 | 21.11° C | 70% | 1016.8 hPa | 0 mm | - | - | - |
| 1778102495 | 21.11° C | 70% | 1016.7 hPa | 0 mm | - | - | - |
| 1778101894 | 20.56° C | 70% | 1016.7 hPa | 0 mm | - | - | - |
| 1778101293 | 20.56° C | 70% | 1016.5 hPa | 0 mm | - | - | - |
| 1778100692 | 20.56° C | 70% | 1016.4 hPa | 0 mm | - | - | - |
| 1778100091 | 20° C | 70% | 1016.3 hPa | 0 mm | - | - | - |
| 1778099490 | 20.56° C | 70% | 1016.2 hPa | 0 mm | - | - | - |
| 1778098888 | 20.56° C | 70% | 1016.1 hPa | 0 mm | - | - | - |
| 1778098287 | 20.56° C | 70% | 1016 hPa | 0 mm | - | - | - |
| 1778097687 | 20.56° C | 70% | 1015.9 hPa | 0 mm | - | - | - |
| 1778097086 | 20.56° C | 70% | 1015.8 hPa | 0 mm | - | - | - |
| 1778096484 | 20.56° C | 70% | 1015.7 hPa | 0 mm | - | - | - |
| 1778095883 | 20.56° C | 70% | 1015.6 hPa | 0 mm | - | - | - |
| 1778095282 | 21.11° C | 70% | 1015.5 hPa | 0 mm | - | - | - |
| 1778094681 | 21.11° C | 70% | 1015.3 hPa | 0 mm | - | - | - |
| 1778093479 | 21.11° C | 70% | 1015.3 hPa | 0 mm | - | - | - |
| 1778092878 | 21.11° C | 70% | 1015.3 hPa | 0 mm | - | - | - |
* Rain since midnight (hover to see other rain measurements)
** Current wind speed in m/s (hover to see current wind gust speed)